[[{"header":{"parameterUnit":"m.s-1","parameterCategory":1,"la1":30.2991,"la2":30.254,"lo1":-89.0895,"lo2":-89.0444,"dy":0.0017,"dx":0.0017,"nx":28,"ny":28,"refTime":"2024-02-09T03:00:00:Z","depth":0,"parameterNumber":2,"parameterNumberName":"U-component_of_WINDS"},"data":[0,0,0,0,0,0,0,0,0,0,0,0,0,0,0,0,0,0,0,0,0,0,0,0,0,0,0,0,0,0,0,0,0,0,0,0,0,0,0,0,0,0,0,0,0,0,0,0,0,0,0,0,0,0,0,0,0,0,-3.5296,-3.5296,0,-3.5317,-3.5318,-3.5318,-3.5279,-3.5277,-3.5276,-3.5275,-3.5297,-3.5299,-3.5301,0,0,0,0,0,0,0,0,0,0,0,0,0,-3.5223,-3.5225,-3.5296,-3.5296,-3.5297,-3.5317,-3.5318,-3.5318,-3.5279,-3.5277,-3.5276,-3.5274,-3.5297,-3.5299,-3.5301,0,0,0,0,0,0,0,0,0,0,0,0,0,-3.5251,-3.5225,-3.5296,-3.528,-3.5278,-3.5317,-3.5318,-3.5318,-3.5279,-3.5277,-3.5275,-3.5273,-3.5296,-3.5299,-3.5301,-3.5358,0,0,-3.531,-3.5311,0,0,0,0,0,0,0,0,-3.5249,-3.5253,-3.5282,-3.5281,-3.5279,-3.5293,-3.53,-3.5331,-3.528,-3.5279,-3.5275,-3.5273,-3.5298,-3.53,-3.5308,-3.5359,-3.536,-3.531,-3.5312,-3.5313,-3.5314,0,0,0,0,0,0,0,-3.5247,-3.5252,-3.5304,-3.5282,-3.5281,-3.5272,-3.5273,-3.5306,-3.5299,-3.5279,-3.5276,-3.5279,-3.5297,-3.5306,-3.5309,-3.536,-3.531,-3.5312,-3.5314,-3.5315,-3.5458,-3.546,0,0,0,0,0,0,-3.5247,-3.5251,-3.5304,-3.5305,-3.5259,-3.5275,-3.5277,-3.5291,-3.5299,-3.5298,-3.5281,-3.5277,-3.5302,-3.5306,-3.5309,-3.5376,-3.5313,-3.5315,-3.5317,-3.5456,-3.5459,-3.5461,0,0,0,0,0,0,-3.5246,-3.5252,-3.5303,-3.5277,-3.5283,-3.5278,-3.5294,-3.5292,-3.5301,-3.53,-3.5299,-3.5291,-3.5301,-3.5306,-3.5346,-3.5376,-3.5317,-3.5319,-3.5454,-3.5457,-3.546,-3.5509,0,0,0,0,0,0,-3.5244,-3.5252,-3.5273,-3.5278,-3.5285,-3.5339,-3.5296,-3.5294,-3.5306,-3.5302,-3.531,-3.5309,-3.53,-3.5342,-3.5349,-3.5379,-3.5321,-3.5451,-3.5455,-3.5459,-3.5504,-3.5513,-3.5521,0,0,0,0,0,-3.5241,-3.5286,-3.5274,-3.5281,-3.531,-3.5341,-3.5344,-3.5332,-3.5309,-3.533,-3.5329,-3.5309,-3.5372,-3.5347,-3.5354,-3.5385,-3.5449,-3.5454,-3.5459,-3.5501,-3.5512,-3.5521,0,0,0,0,0,0,-3.5284,-3.5286,-3.5273,-3.532,-3.5331,-3.5334,-3.536,-3.5344,-3.5361,-3.5356,-3.5341,-3.5344,-3.5387,-3.539,-3.5362,-3.544,-3.5406,-3.5413,-3.5436,-3.5446,-3.5455,-3.5452,-3.5324,0,0,0,0,0,-3.5299,-3.5323,-3.5324,-3.5365,-3.5371,-3.5365,-3.5378,-3.5368,-3.5378,-3.5382,-3.5384,-3.5395,-3.5417,-3.5432,-3.5453,-3.5505,-3.5507,-3.553,-3.5539,-3.5545,-3.5551,-3.5579,-3.559,-3.5477,-3.5477,-3.5477,0,0,-3.533,-3.5334,-3.535,-3.5374,-3.5381,-3.5406,-3.5369,-3.5397,-3.5416,-3.5386,-3.5424,-3.5427,-3.5438,-3.5485,-3.5506,-3.5489,-3.5583,-3.5552,-3.5557,-3.5559,-3.5586,-3.5596,-3.5606,-3.548,-3.548,-3.5479,0,0,-3.5399,-3.5405,-3.544,-3.5448,-3.5459,-3.5454,-3.5463,-3.5469,-3.547,-3.5508,-3.5486,-3.5509,-3.5548,-3.5557,-3.5567,-3.5641,-3.5623,-3.5649,-3.5691,-3.5719,-3.5728,-3.5736,-3.5762,-3.5772,-3.5654,-3.5654,-3.5655,0,-3.5436,-3.5473,-3.546,-3.549,-3.5502,-3.5477,-3.5513,-3.5521,-3.5538,-3.5547,-3.5528,-3.5577,-3.5583,-3.5631,-3.565,-3.5659,-3.5668,-3.5647,-3.5728,-3.5735,-3.5743,-3.5768,-3.5778,-3.5657,-3.5657,-3.5657,-3.5657,0,-3.5518,-3.5544,-3.5572,-3.5589,-3.5604,-3.5637,-3.563,-3.5646,-3.5636,-3.5634,-3.5674,-3.568,-3.5702,-3.5713,-3.5703,-3.5761,-3.575,-3.573,-3.5696,-3.5756,-3.578,-3.5789,-3.5662,-3.5661,-3.566,-3.5659,0,0,-3.5612,-3.5623,-3.5634,-3.5641,-3.5653,-3.5673,-3.5706,-3.5727,-3.5741,-3.5755,-3.5782,-3.5816,-3.5798,-3.5809,-3.58,-3.5825,-3.5884,-3.5801,-3.5801,-3.5816,-3.5948,-3.5963,-3.5974,-3.5872,-3.5874,-3.5876,-3.5947,0,-3.5681,-3.5736,-3.5726,-3.5781,-3.5805,-3.5783,-3.5811,-3.5821,-3.5821,-3.5842,-3.5842,-3.5867,-3.584,-3.5847,-3.5871,-3.5871,-3.591,-3.5866,-3.5898,-3.5899,-3.5894,-3.5986,-3.6002,-3.6069,-3.5956,-3.5958,-3.5959,0,-3.5767,-3.5784,-3.5841,-3.5849,-3.5859,-3.5884,-3.5903,-3.5924,-3.5936,-3.5934,-3.5947,-3.5934,-3.5968,-3.5934,-3.598,-3.5951,-3.5963,-3.5966,-3.5968,-3.597,-3.5932,-3.599,-3.609,-3.61,-3.5973,-3.5972,-3.5971,0,-3.583,-3.5867,-3.5906,-3.5913,-3.5924,-3.5942,-3.5948,-3.5958,-3.5971,-3.5989,-3.5997,-3.6018,-3.603,-3.6047,-3.604,-3.6016,-3.6088,-3.6053,-3.6087,-3.6087,-3.6102,-3.6101,-3.6205,-3.6112,-3.6112,-3.6112,-3.6111,0,-3.5907,-3.5942,-3.5934,-3.5958,-3.5997,-3.5987,-3.6026,-3.6029,-3.6038,-3.6062,-3.6045,-3.6068,-3.6058,-3.6081,-3.6077,-3.6116,-3.6121,-3.6121,-3.6119,-3.6122,-3.6122,-3.6129,-3.6124,-3.6114,-3.6114,-3.6113,-3.6113,0,-3.5983,-3.5979,-3.602,-3.6027,-3.603,-3.6058,-3.6064,-3.6087,-3.6086,-3.6117,-3.6124,-3.6123,-3.6149,-3.6145,-3.6174,-3.6171,-3.6219,-3.6212,-3.6215,-3.6213,-3.6247,-3.6244,-3.6358,-3.6373,-3.6271,-3.6272,-3.6273,0,-3.6032,-3.6058,-3.6069,-3.6084,-3.609,-3.6115,-3.6129,-3.612,-3.6136,-3.6152,-3.6173,-3.6198,-3.6217,-3.626,-3.6262,-3.6285,-3.6277,-3.6316,-3.6281,-3.6283,-3.6278,-3.6276,-3.6278,-3.6323,-3.6324,-3.6325,-3.6326,0,-3.6118,-3.6116,-3.6136,-3.6157,-3.6174,-3.619,-3.6204,-3.6218,-3.621,-3.6229,-3.6255,-3.627,-3.6301,-3.6326,-3.6347,-3.6353,-3.6339,-3.6337,-3.6346,-3.6349,-3.6349,-3.6349,-3.6233,-3.6334,-3.6333,-3.6333,-3.6332,-3.6332,-3.6182,-3.6205,-3.6216,-3.624,-3.625,-3.6264,-3.6285,-3.6288,-3.631,-3.6333,-3.6327,-3.6358,-3.637,-3.6397,-3.6406,-3.643,-3.6416,-3.6429,-3.6432,-3.6435,-3.6439,-3.6346,-3.6434,-3.6434,-3.6434,-3.6433,-3.6433,0,-3.6267,-3.6274,-3.6296,-3.6316,-3.6336,-3.6321,-3.6336,-3.6353,-3.638,-3.6393,-3.6412,-3.6444,-3.6468,-3.6473,-3.6496,-3.6515,-3.6509,-3.6521,-3.6519,-3.6521,-3.645,-3.644,-3.6526,-3.6526,-3.6526,-3.6526,-3.6526,-3.6526,-3.6314,-3.6352,-3.6351,-3.6394,-3.64,-3.643,-3.644,-3.6453,-3.6463,-3.6498,-3.6519,-3.6522,-3.6532,-3.6556,-3.6578,-3.6579,-3.6588,-3.6603,-3.6602,-3.6535,-3.6526,-3.6517,-3.6507,-3.6606,-3.6606,-3.667,-3.6671,-3.6671]},{"header":{"parameterUnit":"m.s-1","parameterCategory":1,"la1":30.2991,"la2":30.254,"lo1":-89.0895,"lo2":-89.0444,"dy":0.0017,"dx":0.0017,"nx":28,"ny":28,"refTime":"2024-02-09T03:00:00:Z","depth":0,"parameterNumber":3,"parameterNumberName":"V-component_of_WINDS"},"data":[0,0,0,0,0,0,0,0,0,0,0,0,0,0,0,0,0,0,0,0,0,0,0,0,0,0,0,0,0,0,0,0,0,0,0,0,0,0,0,0,0,0,0,0,0,0,0,0,0,0,0,0,0,0,0,0,0,0,2.9859,2.986,0,2.9925,2.9926,2.9926,3.0006,3.0007,3.0008,3.001,3.0073,3.0073,3.0074,0,0,0,0,0,0,0,0,0,0,0,0,0,2.9801,2.9801,2.9859,2.986,2.9861,2.9925,2.9926,2.9927,3.0006,3.0007,3.0009,3.001,3.0073,3.0073,3.0074,0,0,0,0,0,0,0,0,0,0,0,0,0,2.9842,2.9802,2.9859,2.9908,2.9913,2.9925,2.9926,2.9927,3.0005,3.0007,3.0009,3.0011,3.0072,3.0073,3.0074,3.0041,0,0,3.0076,3.0077,0,0,0,0,0,0,0,0,2.984,2.9844,2.99,2.9905,2.991,2.9959,2.9928,2.9965,3.0005,2.997,3.001,3.0012,3.0033,3.0037,3.0045,3.0044,3.0047,3.0076,3.0077,3.0077,3.0077,0,0,0,0,0,0,0,2.9837,2.9842,2.9885,2.9901,2.9907,2.9926,2.9934,2.9936,2.999,2.9973,2.9979,2.9986,3.0036,3.0044,3.0047,3.0048,3.0076,3.0077,3.0078,3.0078,3.0026,3.0025,0,0,0,0,0,0,2.9827,2.9839,2.9883,2.9887,2.9879,2.9926,2.9935,2.9942,2.999,3.0,2.9985,2.999,3.0042,3.0046,3.005,3.0018,3.0077,3.0078,3.0078,3.0028,3.0026,3.0024,0,0,0,0,0,0,2.9825,2.983,2.988,2.9865,2.9873,2.9925,2.9932,2.9942,2.995,2.9999,3.0009,2.9983,3.0044,3.0049,3.0044,3.0021,3.0078,3.0079,3.003,3.0028,3.0025,2.995,0,0,0,0,0,0,2.9823,2.9829,2.9817,2.9864,2.9873,2.9873,2.993,2.9942,2.9952,2.9959,3.0,3.0009,3.0046,3.0042,3.0045,3.0023,3.008,3.0033,3.0029,3.0026,2.9955,2.9945,2.9937,0,0,0,0,0,2.9821,2.9792,2.9816,2.9821,2.986,2.9872,2.9877,2.9921,2.9949,2.9938,2.997,3.0007,3.0023,3.0041,3.0044,3.0022,3.0034,3.003,3.0026,2.9959,2.9947,2.9937,0,0,0,0,0,0,2.9739,2.9799,2.9826,2.9812,2.9836,2.9885,2.9872,2.9907,2.9923,2.9929,2.9982,2.9991,2.998,3.0,3.002,2.9995,3.0034,3.003,2.9982,2.9971,2.9962,2.9958,3.008,0,0,0,0,0,2.9719,2.9725,2.9777,2.9759,2.977,2.9819,2.9826,2.9858,2.9885,2.9896,2.9927,2.9951,2.9962,2.9967,2.9979,2.9958,2.9969,2.9945,2.9936,2.9928,2.9925,2.9918,2.9908,3.0011,3.0011,3.0011,0,0,2.9679,2.9712,2.9712,2.9743,2.9766,2.9771,2.9827,2.9829,2.9833,2.9895,2.9894,2.9918,2.9948,2.9936,2.9932,2.9952,2.9899,2.9923,2.9917,2.9917,2.9913,2.9903,2.9894,3.0008,3.0008,3.0009,0,0,2.9608,2.9633,2.9622,2.9645,2.968,2.9713,2.971,2.9755,2.9774,2.9773,2.9821,2.9826,2.9843,2.9864,2.9876,2.9816,2.9851,2.9818,2.9771,2.9764,2.9756,2.9749,2.9729,2.9722,2.9814,2.9814,2.9814,0,2.9552,2.9562,2.9612,2.9612,2.9626,2.9684,2.9675,2.9694,2.973,2.9737,2.9761,2.9785,2.9809,2.9804,2.979,2.9797,2.9796,2.9814,2.9753,2.9747,2.9741,2.9723,2.9715,2.981,2.981,2.9811,2.9811,0,2.9494,2.95,2.9487,2.9524,2.9536,2.953,2.9579,2.9585,2.9617,2.9647,2.9647,2.9679,2.97,2.9701,2.9731,2.97,2.9713,2.9743,2.9784,2.9726,2.9711,2.9704,2.9804,2.9806,2.9807,2.9808,0,0,2.9372,2.9439,2.9433,2.9452,2.9496,2.9501,2.9499,2.9522,2.9527,2.955,2.9551,2.9565,2.9595,2.9609,2.9642,2.9635,2.9588,2.9667,2.9669,2.9653,2.956,2.9537,2.9528,2.9612,2.9611,2.961,2.9558,0,2.9311,2.9313,2.9359,2.9348,2.9356,2.9413,2.9412,2.9438,2.9467,2.9478,2.9509,2.9519,2.9557,2.9566,2.9562,2.9595,2.9571,2.9599,2.9614,2.9614,2.9606,2.952,2.9496,2.9445,2.9552,2.9551,2.955,0,2.9239,2.9261,2.9252,2.9299,2.9304,2.9302,2.9328,2.9337,2.9369,2.9391,2.9408,2.9447,2.9448,2.9486,2.949,2.9509,2.9517,2.9534,2.9534,2.9538,2.9579,2.9523,2.9429,2.9422,2.954,2.9541,2.9542,0,2.9154,2.9181,2.918,2.9194,2.9248,2.9246,2.9268,2.9303,2.9314,2.9336,2.9345,2.9366,2.9377,2.9393,2.9436,2.9459,2.9436,2.9476,2.9454,2.9453,2.9447,2.9447,2.9355,2.945,2.945,2.945,2.945,0,2.9082,2.9074,2.9144,2.9143,2.9137,2.9189,2.9181,2.9209,2.9239,2.9245,2.9295,2.9299,2.9355,2.9365,2.9399,2.9398,2.9403,2.9421,2.943,2.9417,2.9415,2.9424,2.943,2.9448,2.9449,2.9449,2.9449,0,2.8986,2.9032,2.9035,2.9087,2.91,2.9094,2.9138,2.914,2.9173,2.918,2.9184,2.9235,2.9251,2.9295,2.9321,2.9344,2.9334,2.935,2.9324,2.933,2.9306,2.9308,2.9218,2.921,2.9307,2.9306,2.9305,0,2.8938,2.8934,2.8987,2.8995,2.9016,2.9028,2.9042,2.9093,2.9105,2.9143,2.914,2.916,2.9178,2.92,2.9239,2.926,2.9278,2.9245,2.9281,2.9269,2.928,2.928,2.9281,2.9237,2.9236,2.9235,2.9234,0,2.8848,2.8871,2.8889,2.8915,2.893,2.8953,2.8978,2.8981,2.904,2.905,2.9068,2.9082,2.911,2.913,2.9157,2.9179,2.9216,2.9222,2.9219,2.9206,2.9192,2.9201,2.9304,2.9224,2.9225,2.9226,2.9226,2.9227,2.8776,2.8776,2.8815,2.8833,2.8858,2.8881,2.8887,2.8921,2.8937,2.8966,2.8995,2.9009,2.9043,2.9084,2.9104,2.9117,2.9136,2.913,2.9129,2.9127,2.9122,2.9189,2.9121,2.9122,2.9122,2.9122,2.9122,0,2.869,2.8719,2.8735,2.8771,2.8786,2.8821,2.8851,2.8861,2.8874,2.8903,2.8922,2.8943,2.8962,2.9004,2.9027,2.9029,2.9047,2.9033,2.9034,2.904,2.9102,2.9104,2.9019,2.9019,2.9019,2.9019,2.9019,2.9019,2.8648,2.8652,2.868,2.8697,2.8725,2.8741,2.8756,2.8778,2.8802,2.8824,2.8841,2.8869,2.8903,2.893,2.895,2.8961,2.8968,2.895,2.8967,2.9025,2.9035,2.9044,2.9046,2.8951,2.895,2.8904,2.8903,2.8903]}]]